Regional Weather Roundup
Issued by NWS Goodland, KS

Home | Current Version | Previous Version | Text Only | Print | Product List | Glossary Off
Versions: 1 2 3 4 5 6 7 8 9 10 11 12 13 14 15 16 17 18 19 20 21 22 23 24 25 26 27 28 29 30 31 32 33 34 35 36 37 38 39 40 41 42 43 44 45 46 47 48 49 50

000
ASUS43 KGLD 172208
RWRGLD

GOODLAND FORECAST AREA HOURLY WEATHER ROUNDUP
NATIONAL WEATHER SERVICE GOODLAND KS
300 PM MST WED JAN 17 2018

...OFFICIAL OBSERVATIONS...

CITY           SKY/WX    TMP DP  RH WIND       PRES   REMARKS
GOODLAND KS    SUNNY     50   2  14 N5        30.25S
HILL CITY KS   SUNNY     39  14  36 S10       30.33S
IMPERIAL NEB   SUNNY     44  15  31 NW8       30.25S
MCCOOK NEB     SUNNY     40  20  44 VRB5      30.28S
AKRON CO       SUNNY     47  15  27 N12G17    30.25R
BURLINGTON CO  SUNNY     50   0  12 VRB6      30.25S
LIMON CO       SUNNY     48   1  14 N13       30.26S
$$

...UNOFFICIAL OBSERVATIONS...

CITY           SKY/WX    TMP DP  RH WIND       PRES   REMARKS
COLBY KS       SUNNY     46  19  34 W6        30.27S
LENORA KS        N/A     37  32  82 S6          N/A
NORTON KS      SUNNY     37  10  32 SE8       30.30
SHARON SPRINGS   N/A     53  12  19 CALM        N/A
TRENTON NEB      N/A     45  32  60 CALM        N/A
KIT CARSON CO    N/A     52   4  14 MISG        N/A
YUMA CO        FAIR      48  10  21 NW12      30.23S
$$



USA.gov is the U.S. government's official web portal to all federal, state and local government web resources and services.